Back to catalog

STARLINK-36399

AliveCommunicationsSSO
NORAD 67665·PAYLOAD·🇺🇸 United States

Launched Feb 2, 2026 from Vandenberg Space Force Base

Loading…

Next Passes (next 24 hours)

TLE

FreshSource: CelesTrak SupGP

Epoch: Sep 14, 2026, 22:58 UTC

1 67665C 26022T   26257.95743056  .00061340  00000+0  19058-2 0  2578
2 67665  97.2839 289.5396 0001080 107.7754 253.1468 15.33379954    11

Track STARLINK-36399 in real time with AllMySat

Download on the App Store